When you browse on this site, cookies collect data to enhance your experience and personalize the content and advertising you see.
Visit our Privacy Policy to learn more. By continuing to use the site, you agree to this use of cookies and data.
EN

Hourly Weather Salzburg

Today, 5 July, Sunday

Time Temperature Precipitation Wind Pressure Humidity
00:00 +9°C° 0 mm 1 mps 629 mmHg 94%
01:00 +9°C° 0 mm 1 mps 629 mmHg 94%
02:00 +8°C° 0 mm 1 mps 629 mmHg 95%
03:00 +8°C° 0 mm 1 mps 629 mmHg 95%
04:00 +8°C° 0 mm 1 mps 629 mmHg 95%
05:00 +10°C° 0 mm 1 mps 629 mmHg 90%
06:00 +11°C° 0 mm 1 mps 630 mmHg 85%
07:00 +14°C° 0 mm 1 mps 631 mmHg 78%
08:00 +16°C° 0 mm 1 mps 632 mmHg 67%
09:00 +19°C° 0 mm 1 mps 632 mmHg 56%
10:00 +21°C° 0 mm 1 mps 633 mmHg 45%
11:00 +21°C° 0 mm 1 mps 633 mmHg 44%
12:00 +22°C° 0 mm 1 mps 633 mmHg 43%
13:00 +23°C° 0 mm 2 mps 633 mmHg 42%
14:00 +23°C° 0 mm 2 mps 632 mmHg 45%
15:00 +21°C° 0 mm 2 mps 632 mmHg 48%
16:00 +21°C° 0 mm 2 mps 631 mmHg 51%
17:00 +19°C° 0 mm 2 mps 631 mmHg 60%
18:00 +19°C° 0 mm 1 mps 630 mmHg 70%
19:00 +18°C° 0 mm 1 mps 630 mmHg 80%
20:00 +15°C° 0 mm 1 mps 629 mmHg 84%
21:00 +14°C° 0 mm 1 mps 629 mmHg 88%
22:00 +13°C° 0 mm 1 mps 629 mmHg 92%
23:00 +12°C° 0 mm 1 mps 629 mmHg 93%

Tomorrow, 6 July, Monday

Time Temperature Precipitation Wind Pressure Humidity
00:00 +12°C° 0 mm 1 mps 628 mmHg 93%
01:00 +11°C° 0 mm 1 mps 628 mmHg 94%
02:00 +10°C° 0.1 mm 0 mps 628 mmHg 95%
03:00 +10°C° 0.1 mm 0 mps 628 mmHg 96%
04:00 +10°C° 0.1 mm 0 mps 627 mmHg 96%
05:00 +11°C° 0.1 mm 0 mps 627 mmHg 95%
06:00 +12°C° 0.1 mm 1 mps 627 mmHg 94%
07:00 +13°C° 0.1 mm 1 mps 628 mmHg 93%
08:00 +14°C° 0.1 mm 1 mps 628 mmHg 91%
09:00 +14°C° 0.1 mm 1 mps 628 mmHg 89%
10:00 +15°C° 0.1 mm 1 mps 628 mmHg 87%
11:00 +14°C° 0.3 mm 2 mps 627 mmHg 88%
12:00 +14°C° 0.3 mm 2 mps 627 mmHg 89%
13:00 +14°C° 0.3 mm 2 mps 627 mmHg 89%
14:00 +13°C° 1 mm 2 mps 626 mmHg 92%
15:00 +12°C° 1 mm 2 mps 626 mmHg 95%
16:00 +9°C° 1 mm 2 mps 625 mmHg 98%
17:00 +9°C° 2.1 mm 2 mps 626 mmHg 98%
18:00 +8°C° 2.1 mm 2 mps 626 mmHg 98%
19:00 +7°C° 2.1 mm 2 mps 626 mmHg 98%
20:00 +7°C° 2 mm 2 mps 626 mmHg 98%
21:00 +6°C° 2 mm 2 mps 626 mmHg 97%
22:00 +6°C° 2 mm 2 mps 627 mmHg 97%
23:00 +5°C° 0.6 mm 2 mps 627 mmHg 97%

Day after tomorrow, 7 July, Tuesday

Time Temperature Precipitation Wind Pressure Humidity
00:00 +5°C° 0.6 mm 2 mps 627 mmHg 96%
01:00 +4°C° 0.6 mm 2 mps 627 mmHg 96%
02:00 +4°C° 0.3 mm 2 mps 627 mmHg 96%
03:00 +3°C° 0.3 mm 2 mps 627 mmHg 97%
04:00 +4°C° 0.3 mm 1 mps 627 mmHg 97%
05:00 +5°C° 0.2 mm 1 mps 628 mmHg 95%
06:00 +5°C° 0.2 mm 1 mps 628 mmHg 94%
07:00 +6°C° 0.2 mm 1 mps 629 mmHg 93%
08:00 +8°C° 0.1 mm 1 mps 629 mmHg 82%
09:00 +8°C° 0.1 mm 2 mps 629 mmHg 71%
10:00 +10°C° 0.1 mm 2 mps 630 mmHg 60%
11:00 +12°C° 0 mm 2 mps 630 mmHg 55%
12:00 +13°C° 0 mm 2 mps 630 mmHg 51%
13:00 +14°C° 0 mm 2 mps 630 mmHg 46%
14:00 +14°C° 0 mm 2 mps 630 mmHg 47%
15:00 +14°C° 0 mm 2 mps 630 mmHg 48%
16:00 +14°C° 0 mm 2 mps 630 mmHg 49%
17:00 +13°C° 0 mm 2 mps 630 mmHg 58%
18:00 +12°C° 0 mm 1 mps 629 mmHg 67%
19:00 +11°C° 0 mm 1 mps 629 mmHg 77%
20:00 +9°C° 0 mm 1 mps 629 mmHg 82%
21:00 +7°C° 0 mm 1 mps 628 mmHg 87%
22:00 +5°C° 0 mm 1 mps 628 mmHg 92%
23:00 +5°C° 0 mm 1 mps 628 mmHg 92%

8 July, Wednesday

Time Temperature Precipitation Wind Pressure Humidity
00:00 +5°C° 0 mm 1 mps 628 mmHg 91%
01:00 +5°C° 0 mm 1 mps 628 mmHg 91%
02:00 +5°C° 0 mm 1 mps 627 mmHg 90%
03:00 +5°C° 0 mm 1 mps 627 mmHg 90%
04:00 +4°C° 0 mm 1 mps 627 mmHg 89%
05:00 +7°C° 0 mm 1 mps 628 mmHg 82%
06:00 +9°C° 0 mm 1 mps 629 mmHg 75%
07:00 +10°C° 0 mm 0 mps 629 mmHg 68%
08:00 +13°C° 0 mm 1 mps 630 mmHg 59%
09:00 +15°C° 0 mm 1 mps 631 mmHg 51%
10:00 +19°C° 0 mm 1 mps 632 mmHg 42%
11:00 +19°C° 0 mm 1 mps 632 mmHg 40%
12:00 +20°C° 0 mm 1 mps 632 mmHg 38%
13:00 +20°C° 0 mm 2 mps 632 mmHg 36%
14:00 +20°C° 0 mm 2 mps 631 mmHg 39%
15:00 +19°C° 0 mm 2 mps 631 mmHg 42%
16:00 +19°C° 0 mm 2 mps 631 mmHg 44%
17:00 +17°C° 0 mm 2 mps 630 mmHg 56%
18:00 +16°C° 0 mm 1 mps 630 mmHg 67%
19:00 +14°C° 0 mm 1 mps 630 mmHg 79%
20:00 +12°C° 0 mm 1 mps 629 mmHg 84%
21:00 +11°C° 0 mm 1 mps 629 mmHg 88%
22:00 +9°C° 0 mm 1 mps 629 mmHg 93%
23:00 +9°C° 0 mm 1 mps 629 mmHg 92%

9 July, Thursday

Time Temperature Precipitation Wind Pressure Humidity
00:00 +9°C° 0 mm 1 mps 629 mmHg 92%
01:00 +8°C° 0 mm 1 mps 629 mmHg 92%
02:00 +8°C° 0 mm 1 mps 629 mmHg 92%
03:00 +8°C° 0 mm 1 mps 628 mmHg 91%
04:00 +8°C° 0 mm 1 mps 628 mmHg 91%
05:00 +10°C° 0 mm 1 mps 629 mmHg 85%
06:00 +11°C° 0 mm 0 mps 630 mmHg 80%
07:00 +13°C° 0 mm 0 mps 631 mmHg 74%
08:00 +14°C° 0 mm 0 mps 631 mmHg 67%
09:00 +18°C° 0 mm 1 mps 632 mmHg 60%
10:00 +20°C° 0 mm 1 mps 633 mmHg 53%
11:00 +21°C° 0 mm 1 mps 632 mmHg 52%
12:00 +20°C° 0 mm 2 mps 632 mmHg 51%
13:00 +21°C° 0 mm 2 mps 632 mmHg 50%
14:00 +20°C° 0.1 mm 2 mps 632 mmHg 55%
15:00 +19°C° 0.1 mm 2 mps 632 mmHg 59%
16:00 +19°C° 0.1 mm 2 mps 631 mmHg 64%
17:00 +19°C° 0.1 mm 1 mps 631 mmHg 72%
18:00 +18°C° 0.1 mm 1 mps 630 mmHg 79%
19:00 +15°C° 0.1 mm 1 mps 630 mmHg 87%
20:00 +14°C° 0 mm 1 mps 630 mmHg 90%
21:00 +12°C° 0 mm 1 mps 630 mmHg 93%
22:00 +10°C° 0 mm 0 mps 629 mmHg 96%
23:00 +11°C° 0 mm 1 mps 629 mmHg 95%

10 July, Friday

Time Temperature Precipitation Wind Pressure Humidity
00:00 +11°C° 0 mm 1 mps 629 mmHg 94%
01:00 +10°C° 0 mm 1 mps 629 mmHg 93%
02:00 +10°C° 0 mm 1 mps 628 mmHg 93%
03:00 +10°C° 0 mm 1 mps 628 mmHg 92%
04:00 +10°C° 0 mm 1 mps 628 mmHg 91%
05:00 +11°C° 0 mm 1 mps 628 mmHg 85%
06:00 +13°C° 0 mm 1 mps 629 mmHg 80%
07:00 +15°C° 0 mm 1 mps 629 mmHg 74%
08:00 +18°C° 0 mm 1 mps 630 mmHg 65%
09:00 +19°C° 0 mm 0 mps 631 mmHg 56%
10:00 +21°C° 0 mm 0 mps 631 mmHg 47%
11:00 +24°C° 0.4 mm 1 mps 631 mmHg 47%
12:00 +24°C° 0.4 mm 1 mps 631 mmHg 46%
13:00 +25°C° 0.4 mm 1 mps 631 mmHg 46%
14:00 +24°C° 0.8 mm 1 mps 630 mmHg 53%
15:00 +22°C° 0.8 mm 1 mps 630 mmHg 61%
16:00 +20°C° 0.8 mm 2 mps 629 mmHg 68%
17:00 +18°C° 1.7 mm 2 mps 629 mmHg 76%
18:00 +17°C° 1.7 mm 2 mps 628 mmHg 83%
19:00 +15°C° 1.7 mm 1 mps 628 mmHg 91%
20:00 +14°C° 0.5 mm 1 mps 628 mmHg 91%
21:00 +13°C° 0.5 mm 1 mps 628 mmHg 91%
22:00 +12°C° 0.5 mm 1 mps 628 mmHg 91%
23:00 +12°C° 0 mm 1 mps 628 mmHg 90%
Show more